Dauntless Aviation
Airports Asia China
ZGSZ
SZX

Shenzhen Bao'an International Airport

Shenzhen, CHINA

Airport Info
Suggest Updated Information for this Airport

Location

Latitude / Longitude: 22°38'21"N / 113°48'39"E
  22°38.358'N / 113°48.66'E
  22.6393 / 113.8110

Nearby radio navigation aids

QJ SHENZHEN NDB. 155.7° 10.4nm from QJ to field.
SZX SHENZHEN VOR/DME on field.

Runway Information

Runway 15 /33

Dimensions: 11155 x 148 ft.
Surface: ASP
 
Runway 15
Runway 33
Latitude: 22.651889 22.624778
Longitude: 113.803903 113.819431
Elevation: 12 ft. 12 ft.
Runway true heading: 153 333
 

Instrument Procedures

  Aerodrome Chart
  Aerodrome Chart
  Aerodrome Chart
  Aerodrome Parking/Docking Chart

STARs (Standard Terminal Arrivals)

  STAR RNAV Rwy 15
  STAR RNAV Rwy 16
  STAR RNAV Rwy 33
  STAR RNAV Rwy 34
  STAR Rwy 15/16
  STAR Rwy 33/34

IAPs (Instrument Approach Procedures)

  Aircraft Standard Push Back Procedure
  Aerodrome Obstacle Chart Rwy 15/33
  Aerodrome Obstacle Chart Rwy 16/34
  RNAV ILS/DME Rwy 15
  RNAV ILS/DME Rwy 16
  RNAV ILS/DME Rwy 33
  RNAV ILS/DME Rwy 34
  ILS/DME Rwy 15
  ILS/DME Rwy 16
  ILS/DME Rwy 33
  ILS/DME Rwy 33
  ILS/DME Rwy 34
  ILS/DME Rwy 34

Departure Procedures

  SID RNAV Rwy 15
  SID RNAV Rwy 16
  SID RNAV Rwy 33
  SID RNAV Rwy 34
  SID Rwy 15
  SID Rwy 16
  SID Rwy 33
  SID Rwy 34
Satellite photo at:
Airport distance calculator
From:
Weather Reports

METAR

ZGSZ

ZGSZ 220200Z 17004MPS CAVOK 27/22 Q1011 NOSIG
VHHH
20.2nm SE
VHHH 220230Z 07009KT 9999 FEW020 28/22 Q1010 NOSIG
VMMC
32.0nm S
VMMC 220230Z 12008KT 9999 FEW015 26/23 Q1011 NOSIG

TAF

ZGSZ
TAF ZGSZ 211939Z 2200/2224 11004MPS 6000 FEW020 SCT040 TX29/2206Z TN24/2222Z TEMPO 2200/2204 SHRA SCT015 FEW020CB BKN030 TEMPO 2206/2212 TSRA SCT010 FEW020CB BKN030
VHHH
20.2nm SE
TAF AMD VHHH 220231Z 2202/2306 12010KT 9000 FEW015 SCT030 TX30/2206Z TX29/2306Z TN25/2222Z TEMPO 2202/2210 26010KT 4000 SHRA TEMPO 2215/2221 VRB05KT 3500 SHRA FEW012CB SCT025 TEMPO 2221/2303 VRB15G25KT 2000 TSRA SHRA FEW010CB SCT020 BKN040 TEMPO 2303/2306 18010KT 3500 SHRA FEW012CB SCT025
VMMC
32.0nm S
TAF VMMC 212303Z 2200/2306 10010KT 8000 FEW012 SCT025 TEMPO 2203/2209 3500 TSRA FEW010CB SCT020 BECMG 2209/2212 VRB03KT TEMPO 2218/2222 VRB18G28KT 2500 TSRA FEW010CB SCT020 BKN040 TEMPO 2222/2302 3500 SHRA FEW010CB SCT020
Safelog

 

Dauntless Aviation

© 2007-2019 Dauntless Aviation, all rights reserved
Information provided via PilotNav comes from a variety of official and unofficial data sources. As errors are possible, do not use PilotNav for primary flight planning purposes. Verify any information that you receive via PilotNav with current and canonical charts and other official documents. The material in this database is subject to database copyrights held by Dauntless Aviation and may not be copied without the express permission of Dauntless Aviation - licenses for use of part of all of this data are available for purchase; enquire via the Dauntless Aviation helpdesk. A number of mechanisms and markers exist in the database to protect against and identify infringement / copyright. Automated queries against this website are stictly prohibited, and all activity is logged and analyzed.